LOCATION_NAME,SAMPLE COLLECTION TIME,DOSE EQUIVALENT RATE (nSv/h),GAMMA COUNT RATE R02 (CPM),GAMMA COUNT RATE R03 (CPM),GAMMA COUNT RATE R04 (CPM),GAMMA COUNT RATE R05 (CPM),GAMMA COUNT RATE R06 (CPM),GAMMA COUNT RATE R07 (CPM),GAMMA COUNT RATE R08 (CPM),GAMMA COUNT RATE R09 (CPM),STATUS
PA: BLOOMSBURG,01/01/2019 00:17:00,,1917.00,1186.00,335.00,174.00,96.00,112.00,65.00,36.00,APPROVED
PA: BLOOMSBURG,01/01/2019 01:18:00,,1895.00,1180.00,331.00,171.00,92.00,112.00,64.00,34.00,APPROVED
PA: BLOOMSBURG,01/01/2019 02:18:00,,1817.00,1096.00,316.00,159.00,88.00,105.00,62.00,34.00,APPROVED
PA: BLOOMSBURG,01/01/2019 03:18:00,,1856.00,1139.00,321.00,164.00,91.00,109.00,62.00,35.00,APPROVED
PA: BLOOMSBURG,01/01/2019 04:18:00,,1832.00,1125.00,317.00,164.00,90.00,106.00,64.00,36.00,APPROVED
PA: BLOOMSBURG,01/01/2019 05:18:00,,1752.00,1034.00,301.00,153.00,87.00,98.00,59.00,33.00,APPROVED
PA: BLOOMSBURG,01/01/2019 06:19:00,,1716.00,1015.00,289.00,148.00,82.00,94.00,59.00,31.00,APPROVED
PA: BLOOMSBURG,01/01/2019 07:19:00,,1699.00,990.00,283.00,140.00,81.00,92.00,57.00,30.00,APPROVED
PA: BLOOMSBURG,01/01/2019 08:19:00,,1708.00,1004.00,287.00,145.00,83.00,95.00,57.00,32.00,APPROVED
PA: BLOOMSBURG,01/01/2019 09:19:00,,1735.00,1031.00,297.00,152.00,84.00,99.00,60.00,33.00,APPROVED
PA: BLOOMSBURG,01/01/2019 10:19:00,,1745.00,1054.00,296.00,158.00,87.00,101.00,61.00,35.00,APPROVED
PA: BLOOMSBURG,01/01/2019 11:20:00,,1757.00,1058.00,304.00,162.00,87.00,102.00,63.00,34.00,APPROVED
PA: BLOOMSBURG,01/01/2019 12:20:00,,1736.00,1054.00,297.00,162.00,86.00,101.00,61.00,34.00,APPROVED
PA: BLOOMSBURG,01/01/2019 13:20:00,,1718.00,1023.00,283.00,151.00,85.00,97.00,60.00,32.00,APPROVED
PA: BLOOMSBURG,01/01/2019 14:20:00,,1753.00,1051.00,298.00,156.00,87.00,99.00,61.00,34.00,APPROVED
PA: BLOOMSBURG,01/01/2019 15:20:00,,1763.00,1070.00,304.00,161.00,90.00,103.00,63.00,34.00,APPROVED
PA: BLOOMSBURG,01/01/2019 16:21:00,,1726.00,1024.00,292.00,158.00,85.00,98.00,59.00,34.00,APPROVED
PA: BLOOMSBURG,01/01/2019 17:21:00,,1677.00,978.00,280.00,144.00,82.00,92.00,56.00,31.00,APPROVED
PA: BLOOMSBURG,01/01/2019 18:21:00,,1667.00,961.00,275.00,137.00,78.00,91.00,57.00,30.00,APPROVED
PA: BLOOMSBURG,01/01/2019 19:21:00,,1652.00,954.00,276.00,135.00,78.00,90.00,56.00,30.00,APPROVED
PA: BLOOMSBURG,01/01/2019 20:21:00,,1638.00,945.00,270.00,131.00,79.00,88.00,56.00,31.00,APPROVED
PA: BLOOMSBURG,01/01/2019 21:22:00,,1639.00,940.00,274.00,133.00,77.00,87.00,56.00,30.00,APPROVED
PA: BLOOMSBURG,01/01/2019 22:22:00,,1636.00,938.00,274.00,132.00,76.00,87.00,55.00,31.00,APPROVED
PA: BLOOMSBURG,01/01/2019 23:22:00,,1649.00,943.00,269.00,134.00,78.00,90.00,56.00,30.00,APPROVED
PA: BLOOMSBURG,01/02/2019 00:22:00,,1667.00,963.00,276.00,135.00,80.00,87.00,53.00,31.00,APPROVED
PA: BLOOMSBURG,01/02/2019 01:23:00,,1683.00,979.00,283.00,142.00,79.00,93.00,55.00,30.00,APPROVED
PA: BLOOMSBURG,01/02/2019 02:23:00,,1658.00,954.00,271.00,134.00,79.00,90.00,55.00,31.00,APPROVED
PA: BLOOMSBURG,01/02/2019 03:23:00,,1649.00,951.00,273.00,136.00,78.00,91.00,54.00,31.00,APPROVED
PA: BLOOMSBURG,01/02/2019 04:23:00,,1654.00,957.00,272.00,135.00,78.00,89.00,54.00,29.00,APPROVED
PA: BLOOMSBURG,01/02/2019 05:23:00,,1651.00,954.00,272.00,139.00,78.00,91.00,55.00,29.00,APPROVED
PA: BLOOMSBURG,01/02/2019 06:24:00,,1661.00,960.00,276.00,136.00,77.00,90.00,54.00,31.00,APPROVED
PA: BLOOMSBURG,01/02/2019 07:24:00,,1666.00,965.00,274.00,137.00,79.00,89.00,56.00,31.00,APPROVED
PA: BLOOMSBURG,01/02/2019 08:24:00,,1666.00,973.00,279.00,137.00,80.00,89.00,57.00,30.00,APPROVED
PA: BLOOMSBURG,01/02/2019 09:24:00,,1674.00,983.00,280.00,141.00,78.00,91.00,55.00,30.00,APPROVED
PA: BLOOMSBURG,01/02/2019 10:24:00,,1692.00,985.00,281.00,142.00,82.00,91.00,56.00,30.00,APPROVED
PA: BLOOMSBURG,01/02/2019 11:25:00,,1711.00,1001.00,285.00,146.00,81.00,94.00,57.00,30.00,APPROVED
PA: BLOOMSBURG,01/02/2019 12:25:00,,1680.00,974.00,279.00,136.00,80.00,92.00,56.00,30.00,APPROVED
PA: BLOOMSBURG,01/02/2019 13:25:00,,1664.00,951.00,277.00,136.00,75.00,86.00,53.00,29.00,APPROVED
PA: BLOOMSBURG,01/02/2019 14:25:00,,1674.00,950.00,272.00,128.00,79.00,86.00,53.00,30.00,APPROVED
PA: BLOOMSBURG,01/02/2019 15:25:00,,1665.00,953.00,272.00,130.00,77.00,88.00,52.00,29.00,APPROVED
PA: BLOOMSBURG,01/02/2019 16:34:00,,1649.00,927.00,264.00,123.00,74.00,84.00,52.00,28.00,APPROVED
PA: BLOOMSBURG,01/02/2019 17:34:00,,1646.00,947.00,273.00,130.00,78.00,89.00,55.00,30.00,APPROVED
PA: BLOOMSBURG,01/02/2019 18:35:00,,1652.00,951.00,270.00,135.00,79.00,89.00,55.00,29.00,APPROVED
PA: BLOOMSBURG,01/02/2019 19:35:00,,1659.00,955.00,275.00,137.00,80.00,91.00,55.00,30.00,APPROVED
PA: BLOOMSBURG,01/02/2019 20:35:00,,1667.00,963.00,277.00,138.00,80.00,90.00,56.00,30.00,APPROVED
PA: BLOOMSBURG,01/02/2019 21:35:00,,1666.00,970.00,281.00,139.00,80.00,92.00,56.00,31.00,APPROVED
PA: BLOOMSBURG,01/02/2019 22:35:00,,1690.00,979.00,282.00,144.00,81.00,93.00,56.00,30.00,APPROVED
PA: BLOOMSBURG,01/02/2019 23:36:00,,1695.00,990.00,283.00,143.00,81.00,94.00,59.00,31.00,APPROVED
PA: BLOOMSBURG,01/03/2019 00:36:00,,1696.00,995.00,283.00,145.00,80.00,93.00,56.00,31.00,APPROVED
PA: BLOOMSBURG,01/03/2019 01:36:00,,1696.00,984.00,282.00,139.00,81.00,93.00,57.00,31.00,APPROVED
PA: BLOOMSBURG,01/03/2019 02:36:00,,1677.00,974.00,279.00,140.00,79.00,91.00,55.00,31.00,APPROVED
PA: BLOOMSBURG,01/03/2019 03:36:00,,1667.00,958.00,278.00,137.00,77.00,88.00,54.00,29.00,APPROVED
PA: BLOOMSBURG,01/03/2019 04:37:00,,1669.00,959.00,276.00,135.00,76.00,90.00,53.00,30.00,APPROVED
PA: BLOOMSBURG,01/03/2019 05:37:00,,1669.00,957.00,274.00,135.00,78.00,91.00,57.00,30.00,APPROVED
PA: BLOOMSBURG,01/03/2019 06:37:00,,1667.00,965.00,279.00,137.00,79.00,91.00,55.00,31.00,APPROVED
PA: BLOOMSBURG,01/03/2019 07:37:00,,1679.00,963.00,274.00,140.00,79.00,90.00,56.00,30.00,APPROVED
PA: BLOOMSBURG,01/03/2019 08:38:00,,1672.00,975.00,279.00,139.00,78.00,89.00,56.00,30.00,APPROVED
PA: BLOOMSBURG,01/03/2019 09:38:00,,1707.00,992.00,283.00,142.00,80.00,92.00,57.00,30.00,APPROVED
PA: BLOOMSBURG,01/03/2019 10:38:00,,1711.00,994.00,285.00,145.00,81.00,95.00,58.00,31.00,APPROVED
PA: BLOOMSBURG,01/03/2019 11:38:00,,1747.00,1036.00,291.00,149.00,82.00,97.00,59.00,34.00,APPROVED
PA: BLOOMSBURG,01/03/2019 12:38:00,,1874.00,1147.00,328.00,168.00,93.00,110.00,64.00,36.00,APPROVED
PA: BLOOMSBURG,01/03/2019 13:39:00,,1763.00,1045.00,301.00,153.00,84.00,102.00,60.00,33.00,APPROVED
PA: BLOOMSBURG,01/03/2019 14:39:00,,1723.00,1009.00,287.00,146.00,81.00,94.00,57.00,33.00,APPROVED
PA: BLOOMSBURG,01/03/2019 15:39:00,,1706.00,996.00,285.00,143.00,82.00,94.00,58.00,30.00,APPROVED
PA: BLOOMSBURG,01/03/2019 16:39:00,,1703.00,1005.00,282.00,145.00,80.00,94.00,58.00,31.00,APPROVED
PA: BLOOMSBURG,01/03/2019 22:40:00,,1685.00,979.00,280.00,140.00,77.00,92.00,57.00,31.00,APPROVED
PA: BLOOMSBURG,01/03/2019 23:41:00,,1686.00,979.00,280.00,139.00,81.00,93.00,56.00,30.00,APPROVED
PA: BLOOMSBURG,01/04/2019 00:41:00,,1694.00,988.00,284.00,139.00,79.00,89.00,57.00,32.00,APPROVED
PA: BLOOMSBURG,01/04/2019 01:41:00,,1699.00,988.00,277.00,137.00,80.00,93.00,57.00,31.00,APPROVED
PA: BLOOMSBURG,01/04/2019 02:41:00,,1702.00,990.00,285.00,139.00,80.00,91.00,57.00,31.00,APPROVED
PA: BLOOMSBURG,01/04/2019 03:41:00,,1703.00,995.00,283.00,141.00,79.00,93.00,57.00,30.00,APPROVED
PA: BLOOMSBURG,01/04/2019 04:42:00,,1720.00,1007.00,288.00,140.00,81.00,92.00,55.00,31.00,APPROVED
PA: BLOOMSBURG,01/04/2019 05:42:00,,1740.00,1021.00,289.00,143.00,82.00,100.00,57.00,31.00,APPROVED
PA: BLOOMSBURG,01/04/2019 06:42:00,,1753.00,1038.00,294.00,150.00,84.00,98.00,56.00,31.00,APPROVED
PA: BLOOMSBURG,01/04/2019 07:42:00,,1756.00,1043.00,294.00,150.00,84.00,98.00,58.00,32.00,APPROVED
PA: BLOOMSBURG,01/04/2019 08:42:00,,1778.00,1061.00,301.00,153.00,86.00,99.00,60.00,31.00,APPROVED
PA: BLOOMSBURG,01/04/2019 09:43:00,,1789.00,1085.00,302.00,157.00,88.00,105.00,59.00,33.00,APPROVED
PA: BLOOMSBURG,01/04/2019 10:43:00,,1828.00,1116.00,312.00,161.00,90.00,107.00,62.00,33.00,APPROVED
PA: BLOOMSBURG,01/04/2019 11:43:00,,1818.00,1111.00,317.00,166.00,91.00,108.00,61.00,35.00,APPROVED
PA: BLOOMSBURG,01/04/2019 12:43:00,,1807.00,1099.00,310.00,162.00,88.00,105.00,62.00,33.00,APPROVED
PA: BLOOMSBURG,01/04/2019 13:44:00,,1807.00,1107.00,310.00,166.00,91.00,107.00,61.00,35.00,APPROVED
PA: BLOOMSBURG,01/04/2019 14:44:00,,1779.00,1093.00,309.00,167.00,90.00,105.00,63.00,35.00,APPROVED
PA: BLOOMSBURG,01/04/2019 15:44:00,,1786.00,1086.00,308.00,167.00,89.00,106.00,63.00,35.00,APPROVED
PA: BLOOMSBURG,01/04/2019 16:44:00,,1786.00,1090.00,304.00,162.00,89.00,104.00,63.00,36.00,APPROVED
PA: BLOOMSBURG,01/04/2019 17:44:00,,1762.00,1065.00,303.00,160.00,88.00,103.00,60.00,34.00,APPROVED
PA: BLOOMSBURG,01/04/2019 18:45:00,,1729.00,1035.00,297.00,155.00,85.00,101.00,61.00,34.00,APPROVED
PA: BLOOMSBURG,01/04/2019 19:45:00,,1708.00,1023.00,285.00,146.00,82.00,100.00,59.00,33.00,APPROVED
PA: BLOOMSBURG,01/04/2019 20:45:00,,1709.00,1004.00,291.00,147.00,82.00,95.00,59.00,32.00,APPROVED
PA: BLOOMSBURG,01/04/2019 21:45:00,,1710.00,1001.00,286.00,149.00,82.00,95.00,60.00,32.00,APPROVED
PA: BLOOMSBURG,01/04/2019 22:45:00,,1703.00,1009.00,287.00,151.00,85.00,97.00,58.00,32.00,APPROVED
PA: BLOOMSBURG,01/04/2019 23:46:00,,1710.00,1017.00,290.00,149.00,82.00,96.00,59.00,32.00,APPROVED
PA: BLOOMSBURG,01/05/2019 00:46:00,,1751.00,1040.00,291.00,152.00,85.00,98.00,60.00,33.00,APPROVED
PA: BLOOMSBURG,01/05/2019 01:46:00,,1759.00,1057.00,301.00,156.00,87.00,102.00,59.00,34.00,APPROVED
PA: BLOOMSBURG,01/05/2019 02:46:00,,1763.00,1058.00,298.00,158.00,88.00,100.00,62.00,33.00,APPROVED
PA: BLOOMSBURG,01/05/2019 03:46:00,,1777.00,1075.00,306.00,161.00,88.00,103.00,62.00,34.00,APPROVED
PA: BLOOMSBURG,01/05/2019 04:47:00,,1832.00,1149.00,322.00,174.00,92.00,112.00,66.00,35.00,APPROVED
PA: BLOOMSBURG,01/05/2019 05:47:00,,1907.00,1218.00,341.00,189.00,98.00,119.00,68.00,38.00,APPROVED
PA: BLOOMSBURG,01/05/2019 06:47:00,,1997.00,1295.00,363.00,204.00,107.00,128.00,71.00,41.00,APPROVED
PA: BLOOMSBURG,01/05/2019 07:47:00,,1980.00,1289.00,356.00,203.00,103.00,130.00,73.00,40.00,APPROVED
PA: BLOOMSBURG,01/05/2019 08:47:00,,1916.00,1222.00,345.00,197.00,103.00,122.00,70.00,39.00,APPROVED
PA: BLOOMSBURG,01/05/2019 09:48:00,,1857.00,1180.00,332.00,185.00,97.00,116.00,66.00,39.00,APPROVED
PA: BLOOMSBURG,01/05/2019 10:48:00,,1977.00,1277.00,353.00,196.00,105.00,126.00,72.00,39.00,APPROVED
PA: BLOOMSBURG,01/05/2019 11:48:00,,1930.00,1237.00,350.00,194.00,101.00,122.00,70.00,40.00,APPROVED
PA: BLOOMSBURG,01/05/2019 12:48:00,,1854.00,1166.00,332.00,181.00,96.00,116.00,65.00,37.00,APPROVED
PA: BLOOMSBURG,01/05/2019 13:48:00,,1787.00,1075.00,315.00,163.00,89.00,105.00,64.00,35.00,APPROVED
PA: BLOOMSBURG,01/05/2019 14:49:00,,1800.00,1098.00,310.00,163.00,88.00,106.00,63.00,33.00,APPROVED
PA: BLOOMSBURG,01/05/2019 15:49:00,,1808.00,1102.00,316.00,167.00,90.00,106.00,64.00,35.00,APPROVED
PA: BLOOMSBURG,01/05/2019 16:49:00,,1899.00,1189.00,336.00,176.00,95.00,113.00,68.00,37.00,APPROVED
PA: BLOOMSBURG,01/05/2019 17:49:00,,1884.00,1169.00,330.00,179.00,94.00,113.00,67.00,37.00,APPROVED
PA: BLOOMSBURG,01/05/2019 18:50:00,,1905.00,1189.00,334.00,179.00,98.00,115.00,66.00,38.00,APPROVED
PA: BLOOMSBURG,01/05/2019 19:50:00,,1757.00,1054.00,308.00,159.00,88.00,103.00,62.00,35.00,APPROVED
PA: BLOOMSBURG,01/05/2019 20:50:00,,1681.00,983.00,281.00,143.00,82.00,93.00,57.00,33.00,APPROVED
PA: BLOOMSBURG,01/05/2019 21:50:00,,1648.00,965.00,281.00,138.00,79.00,90.00,54.00,31.00,APPROVED
PA: BLOOMSBURG,01/05/2019 22:50:00,,1655.00,950.00,276.00,136.00,78.00,89.00,57.00,30.00,APPROVED
PA: BLOOMSBURG,01/05/2019 23:51:00,,1653.00,953.00,274.00,134.00,79.00,89.00,54.00,31.00,APPROVED
PA: BLOOMSBURG,01/06/2019 00:51:00,,1664.00,954.00,273.00,134.00,76.00,87.00,55.00,29.00,APPROVED
PA: BLOOMSBURG,01/06/2019 01:51:00,,1660.00,951.00,274.00,134.00,76.00,90.00,55.00,29.00,APPROVED
PA: BLOOMSBURG,01/06/2019 02:51:00,,1686.00,974.00,278.00,137.00,80.00,90.00,56.00,32.00,APPROVED
PA: BLOOMSBURG,01/06/2019 03:51:00,,1693.00,989.00,280.00,143.00,78.00,91.00,58.00,31.00,APPROVED
PA: BLOOMSBURG,01/06/2019 04:52:00,,1711.00,1000.00,284.00,139.00,81.00,95.00,56.00,29.00,APPROVED
PA: BLOOMSBURG,01/06/2019 05:52:00,,1710.00,998.00,285.00,142.00,80.00,91.00,57.00,31.00,APPROVED
PA: BLOOMSBURG,01/06/2019 06:52:00,,1722.00,1003.00,286.00,143.00,84.00,94.00,59.00,31.00,APPROVED
PA: BLOOMSBURG,01/06/2019 07:52:00,,1732.00,1015.00,290.00,145.00,83.00,98.00,56.00,32.00,APPROVED
PA: BLOOMSBURG,01/06/2019 08:52:00,,1734.00,1022.00,288.00,150.00,84.00,95.00,59.00,31.00,APPROVED
PA: BLOOMSBURG,01/06/2019 09:53:00,,1748.00,1029.00,297.00,151.00,84.00,97.00,58.00,32.00,APPROVED
PA: BLOOMSBURG,01/06/2019 10:53:00,,1752.00,1030.00,295.00,149.00,85.00,96.00,59.00,32.00,APPROVED
PA: BLOOMSBURG,01/06/2019 11:53:00,,1742.00,1037.00,289.00,151.00,82.00,98.00,59.00,32.00,APPROVED
PA: BLOOMSBURG,01/06/2019 12:53:00,,1743.00,1026.00,291.00,150.00,81.00,97.00,62.00,32.00,APPROVED
PA: BLOOMSBURG,01/06/2019 13:54:00,,1725.00,1020.00,288.00,147.00,82.00,95.00,59.00,31.00,APPROVED
PA: BLOOMSBURG,01/06/2019 14:54:00,,1694.00,998.00,284.00,143.00,80.00,94.00,56.00,32.00,APPROVED
PA: BLOOMSBURG,01/06/2019 15:54:00,,1685.00,978.00,284.00,139.00,81.00,91.00,57.00,30.00,APPROVED
PA: BLOOMSBURG,01/06/2019 16:54:00,,1667.00,971.00,280.00,139.00,80.00,91.00,55.00,32.00,APPROVED
PA: BLOOMSBURG,01/06/2019 17:54:00,,1649.00,964.00,273.00,138.00,79.00,90.00,57.00,31.00,APPROVED
PA: BLOOMSBURG,01/06/2019 18:55:00,,1621.00,941.00,269.00,136.00,77.00,87.00,54.00,29.00,APPROVED
PA: BLOOMSBURG,01/06/2019 19:55:00,,1606.00,928.00,269.00,130.00,76.00,86.00,55.00,29.00,APPROVED
PA: BLOOMSBURG,01/06/2019 20:55:00,,1604.00,923.00,268.00,130.00,75.00,85.00,52.00,29.00,APPROVED
PA: BLOOMSBURG,01/06/2019 21:55:00,,1610.00,911.00,263.00,125.00,75.00,83.00,54.00,30.00,APPROVED
PA: BLOOMSBURG,01/06/2019 22:55:00,,1610.00,913.00,264.00,127.00,76.00,84.00,54.00,28.00,APPROVED
PA: BLOOMSBURG,01/06/2019 23:56:00,,1630.00,930.00,267.00,125.00,77.00,83.00,53.00,28.00,APPROVED
PA: BLOOMSBURG,01/07/2019 00:56:00,,1645.00,930.00,265.00,126.00,78.00,86.00,53.00,28.00,APPROVED
PA: BLOOMSBURG,01/07/2019 01:56:00,,1628.00,924.00,265.00,126.00,75.00,84.00,51.00,29.00,APPROVED
PA: BLOOMSBURG,01/07/2019 02:56:00,,1638.00,913.00,263.00,124.00,74.00,81.00,54.00,28.00,APPROVED
PA: BLOOMSBURG,01/07/2019 03:56:00,,1632.00,913.00,267.00,124.00,75.00,80.00,53.00,29.00,APPROVED
PA: BLOOMSBURG,01/07/2019 04:57:00,,1646.00,916.00,261.00,123.00,74.00,84.00,51.00,28.00,APPROVED
PA: BLOOMSBURG,01/07/2019 05:57:00,,1641.00,925.00,263.00,125.00,74.00,84.00,51.00,28.00,APPROVED
PA: BLOOMSBURG,01/07/2019 06:57:00,,1641.00,928.00,264.00,124.00,74.00,85.00,52.00,29.00,APPROVED
PA: BLOOMSBURG,01/07/2019 07:57:00,,1654.00,937.00,265.00,128.00,75.00,85.00,53.00,29.00,APPROVED
PA: BLOOMSBURG,01/07/2019 08:57:00,,1657.00,945.00,270.00,125.00,76.00,85.00,52.00,30.00,APPROVED
PA: BLOOMSBURG,01/07/2019 09:58:00,,1670.00,952.00,270.00,129.00,77.00,86.00,53.00,30.00,APPROVED
PA: BLOOMSBURG,01/07/2019 10:58:00,,1677.00,954.00,271.00,126.00,76.00,86.00,50.00,29.00,APPROVED
PA: BLOOMSBURG,01/07/2019 11:58:00,,1669.00,952.00,270.00,129.00,75.00,85.00,51.00,28.00,APPROVED
PA: BLOOMSBURG,01/07/2019 12:55:00,,1664.00,950.00,268.00,131.00,77.00,84.00,54.00,28.00,APPROVED
PA: BLOOMSBURG,01/07/2019 14:01:00,,1657.00,926.00,261.00,122.00,73.00,82.00,49.00,28.00,APPROVED
PA: BLOOMSBURG,01/07/2019 15:02:00,,1669.00,942.00,268.00,128.00,76.00,84.00,52.00,28.00,APPROVED
PA: BLOOMSBURG,01/07/2019 16:02:00,,1650.00,934.00,271.00,131.00,75.00,86.00,53.00,29.00,APPROVED
PA: BLOOMSBURG,01/07/2019 17:02:00,,1648.00,927.00,264.00,130.00,77.00,84.00,53.00,29.00,APPROVED
PA: BLOOMSBURG,01/07/2019 18:02:00,,1632.00,919.00,264.00,122.00,74.00,80.00,52.00,28.00,APPROVED
PA: BLOOMSBURG,01/07/2019 19:02:00,,1623.00,916.00,260.00,124.00,73.00,80.00,51.00,29.00,APPROVED
PA: BLOOMSBURG,01/07/2019 20:03:00,,1623.00,920.00,263.00,123.00,76.00,83.00,51.00,28.00,APPROVED
PA: BLOOMSBURG,01/07/2019 21:03:00,,1692.00,971.00,274.00,133.00,76.00,87.00,54.00,30.00,APPROVED
PA: BLOOMSBURG,01/07/2019 22:03:00,,1674.00,941.00,268.00,130.00,78.00,83.00,53.00,28.00,APPROVED
PA: BLOOMSBURG,01/07/2019 23:03:00,,1657.00,926.00,266.00,126.00,77.00,83.00,51.00,28.00,APPROVED
PA: BLOOMSBURG,01/08/2019 00:03:00,,1664.00,939.00,264.00,125.00,76.00,86.00,54.00,29.00,APPROVED
PA: BLOOMSBURG,01/08/2019 01:04:00,,1658.00,924.00,264.00,124.00,75.00,82.00,51.00,28.00,APPROVED
PA: BLOOMSBURG,01/08/2019 02:04:00,,1642.00,923.00,262.00,124.00,76.00,81.00,51.00,29.00,APPROVED
PA: BLOOMSBURG,01/08/2019 03:04:00,,1652.00,926.00,265.00,123.00,74.00,82.00,51.00,29.00,APPROVED
PA: BLOOMSBURG,01/08/2019 04:04:00,,1647.00,913.00,267.00,125.00,74.00,81.00,51.00,28.00,APPROVED
PA: BLOOMSBURG,01/08/2019 05:05:00,,1743.00,1005.00,286.00,134.00,81.00,91.00,54.00,29.00,APPROVED
PA: BLOOMSBURG,01/08/2019 06:05:00,,1848.00,1103.00,307.00,153.00,87.00,101.00,58.00,33.00,APPROVED
PA: BLOOMSBURG,01/08/2019 07:05:00,,1718.00,977.00,281.00,135.00,78.00,89.00,53.00,30.00,APPROVED
PA: BLOOMSBURG,01/08/2019 08:05:00,,1662.00,922.00,264.00,126.00,75.00,82.00,52.00,28.00,APPROVED
PA: BLOOMSBURG,01/08/2019 09:05:00,,1646.00,925.00,264.00,122.00,74.00,83.00,52.00,27.00,APPROVED
PA: BLOOMSBURG,01/08/2019 10:06:00,,1640.00,919.00,262.00,126.00,75.00,84.00,51.00,29.00,APPROVED
PA: BLOOMSBURG,01/08/2019 11:06:00,,1649.00,924.00,264.00,127.00,74.00,84.00,52.00,29.00,APPROVED
PA: BLOOMSBURG,01/08/2019 12:06:00,,1650.00,928.00,269.00,128.00,77.00,85.00,52.00,30.00,APPROVED
PA: BLOOMSBURG,01/08/2019 13:06:00,,1640.00,934.00,266.00,128.00,77.00,86.00,53.00,28.00,APPROVED
PA: BLOOMSBURG,01/08/2019 14:06:00,,1640.00,935.00,268.00,133.00,77.00,85.00,53.00,30.00,APPROVED
PA: BLOOMSBURG,01/08/2019 15:07:00,,1644.00,949.00,269.00,132.00,75.00,87.00,55.00,29.00,APPROVED
PA: BLOOMSBURG,01/08/2019 16:07:00,,1649.00,968.00,277.00,136.00,79.00,90.00,54.00,29.00,APPROVED
PA: BLOOMSBURG,01/08/2019 17:07:00,,1650.00,950.00,276.00,139.00,77.00,90.00,56.00,31.00,APPROVED
PA: BLOOMSBURG,01/08/2019 18:07:00,,1649.00,956.00,275.00,139.00,79.00,92.00,55.00,31.00,APPROVED
PA: BLOOMSBURG,01/08/2019 19:07:00,,1652.00,971.00,281.00,141.00,82.00,90.00,59.00,31.00,APPROVED
PA: BLOOMSBURG,01/08/2019 20:08:00,,1825.00,1127.00,321.00,169.00,92.00,110.00,65.00,35.00,APPROVED
PA: BLOOMSBURG,01/08/2019 21:08:00,,1742.00,1052.00,303.00,159.00,84.00,101.00,61.00,35.00,APPROVED
PA: BLOOMSBURG,01/08/2019 22:08:00,,1673.00,993.00,287.00,142.00,83.00,94.00,58.00,32.00,APPROVED
PA: BLOOMSBURG,01/08/2019 23:08:00,,1683.00,981.00,284.00,144.00,83.00,92.00,58.00,33.00,APPROVED
PA: BLOOMSBURG,01/09/2019 00:08:00,,1700.00,1001.00,291.00,145.00,83.00,96.00,57.00,32.00,APPROVED
PA: BLOOMSBURG,01/09/2019 01:09:00,,1713.00,1021.00,293.00,154.00,84.00,98.00,59.00,32.00,APPROVED
PA: BLOOMSBURG,01/09/2019 02:09:00,,2143.00,1426.00,386.00,217.00,111.00,133.00,75.00,41.00,APPROVED
PA: BLOOMSBURG,01/09/2019 03:09:00,,2202.00,1468.00,408.00,232.00,117.00,145.00,82.00,43.00,APPROVED
PA: BLOOMSBURG,01/09/2019 04:09:00,,1978.00,1258.00,357.00,198.00,101.00,127.00,70.00,40.00,APPROVED
PA: BLOOMSBURG,01/09/2019 05:09:00,,1815.00,1105.00,318.00,168.00,91.00,105.00,63.00,36.00,APPROVED
PA: BLOOMSBURG,01/09/2019 06:10:00,,1814.00,1118.00,312.00,165.00,89.00,107.00,64.00,34.00,APPROVED
PA: BLOOMSBURG,01/09/2019 07:10:00,,1786.00,1069.00,306.00,160.00,89.00,103.00,61.00,34.00,APPROVED
PA: BLOOMSBURG,01/09/2019 08:10:00,,1733.00,1027.00,294.00,150.00,82.00,98.00,58.00,33.00,APPROVED
PA: BLOOMSBURG,01/09/2019 09:10:00,,1697.00,989.00,287.00,140.00,81.00,94.00,55.00,30.00,APPROVED
PA: BLOOMSBURG,01/09/2019 10:10:00,,1697.00,982.00,283.00,140.00,81.00,93.00,56.00,31.00,APPROVED
PA: BLOOMSBURG,01/09/2019 11:11:00,,1700.00,990.00,280.00,141.00,80.00,91.00,56.00,29.00,APPROVED
PA: BLOOMSBURG,01/09/2019 12:11:00,,1713.00,1000.00,287.00,140.00,81.00,94.00,56.00,31.00,APPROVED
PA: BLOOMSBURG,01/09/2019 13:11:00,,1718.00,996.00,282.00,142.00,81.00,93.00,56.00,31.00,APPROVED
PA: BLOOMSBURG,01/09/2019 14:11:00,,1707.00,992.00,284.00,141.00,77.00,94.00,55.00,30.00,APPROVED
PA: BLOOMSBURG,01/09/2019 15:12:00,,1695.00,988.00,284.00,137.00,80.00,93.00,55.00,31.00,APPROVED
PA: BLOOMSBURG,01/09/2019 16:12:00,,1687.00,981.00,283.00,139.00,80.00,93.00,56.00,30.00,APPROVED
PA: BLOOMSBURG,01/09/2019 17:12:00,,1692.00,989.00,282.00,139.00,81.00,94.00,56.00,31.00,APPROVED
PA: BLOOMSBURG,01/09/2019 18:12:00,,1686.00,987.00,280.00,140.00,80.00,93.00,56.00,31.00,APPROVED
PA: BLOOMSBURG,01/09/2019 19:12:00,,1724.00,1015.00,288.00,147.00,82.00,96.00,58.00,32.00,APPROVED
PA: BLOOMSBURG,01/09/2019 20:13:00,,1722.00,1022.00,289.00,149.00,83.00,98.00,60.00,33.00,APPROVED
PA: BLOOMSBURG,01/09/2019 21:13:00,,1732.00,1021.00,290.00,150.00,84.00,100.00,58.00,33.00,APPROVED
PA: BLOOMSBURG,01/09/2019 22:13:00,,1741.00,1035.00,298.00,146.00,84.00,97.00,56.00,33.00,APPROVED
PA: BLOOMSBURG,01/09/2019 23:13:00,,1751.00,1031.00,295.00,148.00,85.00,97.00,58.00,32.00,APPROVED
PA: BLOOMSBURG,01/10/2019 00:13:00,,1735.00,1013.00,295.00,142.00,82.00,96.00,57.00,31.00,APPROVED
PA: BLOOMSBURG,01/10/2019 01:14:00,,1742.00,1025.00,295.00,140.00,82.00,95.00,56.00,31.00,APPROVED
PA: BLOOMSBURG,01/10/2019 02:14:00,,1735.00,1018.00,288.00,141.00,83.00,95.00,56.00,31.00,APPROVED
PA: BLOOMSBURG,01/10/2019 03:14:00,,1730.00,1005.00,283.00,140.00,83.00,92.00,56.00,31.00,APPROVED
PA: BLOOMSBURG,01/10/2019 04:14:00,,1727.00,1005.00,287.00,138.00,81.00,93.00,55.00,30.00,APPROVED
PA: BLOOMSBURG,01/10/2019 05:14:00,,1738.00,1011.00,288.00,140.00,83.00,93.00,57.00,31.00,APPROVED
PA: BLOOMSBURG,01/10/2019 06:15:00,,1725.00,997.00,290.00,140.00,80.00,91.00,57.00,29.00,APPROVED
PA: BLOOMSBURG,01/10/2019 07:15:00,,1711.00,979.00,284.00,134.00,79.00,90.00,52.00,29.00,APPROVED
PA: BLOOMSBURG,01/10/2019 08:15:00,,1699.00,976.00,280.00,132.00,79.00,89.00,54.00,29.00,APPROVED
PA: BLOOMSBURG,01/10/2019 09:15:00,,1694.00,971.00,279.00,133.00,80.00,90.00,55.00,31.00,APPROVED
PA: BLOOMSBURG,01/10/2019 10:15:00,,1689.00,974.00,274.00,132.00,78.00,86.00,55.00,31.00,APPROVED
PA: BLOOMSBURG,01/10/2019 11:16:00,,1692.00,968.00,276.00,133.00,77.00,89.00,53.00,30.00,APPROVED
PA: BLOOMSBURG,01/10/2019 12:16:00,,1694.00,960.00,275.00,129.00,77.00,88.00,53.00,30.00,APPROVED
PA: BLOOMSBURG,01/10/2019 13:16:00,,1684.00,953.00,270.00,131.00,78.00,87.00,54.00,29.00,APPROVED
PA: BLOOMSBURG,01/10/2019 14:16:00,,1673.00,950.00,273.00,131.00,77.00,86.00,54.00,28.00,APPROVED
PA: BLOOMSBURG,01/10/2019 15:16:00,,1681.00,949.00,271.00,128.00,76.00,89.00,52.00,29.00,APPROVED
PA: BLOOMSBURG,01/10/2019 16:17:00,,1683.00,955.00,276.00,128.00,78.00,86.00,53.00,31.00,APPROVED
PA: BLOOMSBURG,01/10/2019 17:17:00,,1672.00,955.00,274.00,128.00,77.00,87.00,53.00,30.00,APPROVED
PA: BLOOMSBURG,01/10/2019 18:17:00,,1681.00,964.00,278.00,132.00,79.00,89.00,54.00,30.00,APPROVED
PA: BLOOMSBURG,01/10/2019 19:17:00,,1686.00,973.00,279.00,133.00,79.00,90.00,53.00,29.00,APPROVED
PA: BLOOMSBURG,01/10/2019 20:18:00,,1688.00,967.00,279.00,137.00,78.00,90.00,54.00,29.00,APPROVED
PA: BLOOMSBURG,01/10/2019 21:18:00,,1680.00,980.00,276.00,132.00,77.00,90.00,53.00,30.00,APPROVED
PA: BLOOMSBURG,01/10/2019 22:18:00,,1695.00,977.00,279.00,135.00,80.00,89.00,52.00,29.00,APPROVED
PA: BLOOMSBURG,01/10/2019 23:18:00,,1700.00,969.00,273.00,134.00,78.00,89.00,54.00,29.00,APPROVED
PA: BLOOMSBURG,01/11/2019 00:18:00,,1672.00,956.00,274.00,129.00,76.00,89.00,53.00,29.00,APPROVED
PA: BLOOMSBURG,01/11/2019 01:19:00,,1682.00,953.00,269.00,129.00,78.00,85.00,53.00,29.00,APPROVED
PA: BLOOMSBURG,01/11/2019 02:19:00,,1675.00,943.00,270.00,128.00,76.00,86.00,51.00,28.00,APPROVED
PA: BLOOMSBURG,01/11/2019 03:19:00,,1638.00,931.00,263.00,124.00,76.00,83.00,51.00,28.00,APPROVED
PA: BLOOMSBURG,01/11/2019 04:19:00,,1636.00,920.00,265.00,123.00,75.00,83.00,52.00,27.00,APPROVED
PA: BLOOMSBURG,01/11/2019 05:19:00,,1644.00,922.00,264.00,123.00,74.00,84.00,51.00,28.00,APPROVED